Date,TemperatureHighF,TemperatureAvgF,TemperatureLowF,DewpointHighF,DewpointAvgF,DewpointLowF,HumidityHigh,HumidityAvg,HumidityLow,PressureMaxIn,PressureMinIn,WindSpeedMaxMPH,WindSpeedAvgMPH,GustSpeedMaxMPH,PrecipitationSumIn
2012-1-1,76.3,68.6,61.4,70.8,65.7,59.8,97,91,77,30.12,30.01,7,3,0,0.00
2012-1-2,79.2,69.7,62.2,71.3,67.1,60.5,100,92,75,30.17,30.07,7,3,0,0.12
2012-1-3,74.5,69.6,67.0,71.7,69.1,67.0,100,99,90,30.22,30.10,4,2,0,0.61
2012-1-4,75.9,68.1,62.4,71.4,66.0,59.6,100,93,78,30.27,30.16,8,3,13,0.00
2012-1-5,76.2,67.4,59.0,68.7,61.5,51.6,94,82,66,30.25,30.13,11,4,15,0.00
2012-1-6,75.0,66.9,58.3,66.4,60.5,52.6,94,80,62,30.21,30.09,11,4,22,0.00
2012-1-7,77.0,67.6,60.5,68.0,62.1,55.6,92,83,63,30.17,30.08,8,3,9,0.00
2012-1-8,75.2,67.8,60.5,70.0,64.2,58.6,95,88,76,30.15,30.06,9,3,13,0.00
2012-1-9,76.6,67.4,59.6,68.9,63.1,54.7,97,86,71,30.16,30.06,9,4,11,0.00
2012-1-10,75.6,67.3,59.1,68.8,63.6,56.6,96,88,70,30.13,30.02,10,4,14,0.00
2012-1-11,74.0,67.4,60.3,68.3,64.2,58.2,98,90,80,30.11,30.01,9,4,12,0.00
2012-1-12,72.5,67.2,63.1,68.5,64.8,61.0,98,92,82,30.04,29.92,4,2,6,0.05
2012-1-13,75.0,67.2,60.4,68.9,64.6,58.9,99,92,74,29.98,29.88,6,3,12,0.01
2012-1-14,76.1,68.0,61.8,69.3,63.5,56.6,97,86,73,30.02,29.91,6,3,13,0.01
2012-1-15,76.7,69.1,63.8,71.5,67.5,62.0,100,95,82,30.10,29.97,9,4,14,0.28
2012-1-16,72.1,68.5,65.7,71.2,68.2,65.3,100,99,96,30.13,30.03,7,2,10,1.01
2012-1-17,77.8,71.0,65.9,71.3,68.9,65.9,100,93,77,30.11,29.99,5,2,6,0.09
2012-1-18,76.3,69.9,63.2,71.3,67.8,61.9,100,93,79,30.13,30.03,6,2,11,0.00
2012-1-19,76.9,68.8,60.4,70.8,65.6,59.5,100,90,76,30.19,30.08,10,4,12,0.01
2012-1-20,78.1,68.8,61.0,69.3,64.3,59.0,95,86,72,30.20,30.10,9,4,14,0.00
2012-1-21,76.7,69.2,59.9,68.8,63.7,57.9,95,83,72,30.21,30.11,12,4,16,0.00
2012-1-22,75.8,69.7,62.6,67.6,62.4,54.2,91,78,65,30.15,30.04,11,5,16,0.00
2012-1-23,75.3,68.1,61.6,68.8,63.5,58.0,94,86,69,30.14,30.03,9,4,13,0.00
2012-1-24,70.7,67.4,64.0,69.4,66.3,62.1,100,96,87,30.14,30.05,10,4,16,1.50
2012-1-25,75.4,67.5,63.0,70.6,65.2,62.1,99,93,72,30.13,30.02,8,4,13,0.20
2012-1-26,74.4,68.3,64.7,69.8,66.7,64.3,100,95,85,30.08,29.95,6,3,9,0.16
2012-1-27,74.5,67.0,61.2,70.0,65.3,59.6,98,94,84,30.09,29.98,8,3,12,0.03
2012-1-28,77.2,68.4,58.6,70.9,63.2,55.3,95,84,62,30.16,30.04,13,5,18,0.00
2012-1-29,79.4,69.3,60.4,70.2,63.7,58.3,94,83,51,30.17,30.07,14,5,18,0.00
2012-1-30,73.0,67.2,59.7,67.9,62.6,55.2,94,85,69,30.16,30.03,10,4,17,0.00
2012-1-31,73.1,68.2,62.8,65.8,63.7,61.3,95,86,73,30.09,29.98,8,3,14,0.00
2012-2-1,73.8,66.3,59.9,66.0,61.6,56.8,95,85,74,30.09,29.99,8,4,12,0.00
2012-2-2,76.7,69.3,61.6,68.7,62.8,57.7,90,80,66,30.11,29.99,9,4,14,0.00
2012-2-3,74.1,66.3,60.3,69.3,63.2,55.8,100,90,79,30.07,29.94,6,3,10,0.25
2012-2-4,77.5,67.7,57.0,70.8,63.7,55.3,100,87,70,29.96,29.82,7,3,13,0.00
2012-2-5,75.7,68.0,61.1,68.1,63.2,55.5,93,85,72,29.97,29.86,7,3,10,0.00
2012-2-6,76.5,69.1,62.2,69.4,64.0,58.2,96,85,68,30.00,29.91,8,3,10,0.00
2012-2-7,79.7,69.4,61.1,66.9,62.9,57.8,94,81,62,29.98,29.81,10,4,14,0.00
2012-2-8,75.1,68.4,62.1,69.0,63.6,58.3,91,85,73,30.14,29.92,9,4,15,0.00
2012-2-9,76.5,67.4,58.7,65.9,60.7,55.7,92,80,62,30.30,30.10,10,4,17,0.00
2012-2-10,77.1,66.8,57.8,67.6,60.0,49.2,92,79,57,30.31,30.20,12,5,18,0.00
2012-2-11,76.1,67.5,58.2,70.1,62.8,55.3,94,85,75,30.31,30.19,12,4,15,0.00
2012-2-12,76.7,70.3,65.9,69.9,66.9,62.6,100,89,74,30.30,30.16,11,5,15,0.06
2012-2-13,76.1,69.5,62.9,69.2,66.1,62.0,100,90,72,30.25,30.12,11,4,18,0.00
2012-2-14,76.7,69.7,64.0,69.4,65.3,62.0,96,86,67,30.22,30.12,11,5,17,0.00
2012-2-15,77.0,69.1,60.8,70.1,64.0,58.3,93,84,75,30.25,30.14,11,5,14,0.00
2012-2-16,75.0,64.1,60.5,65.0,59.2,56.5,92,84,69,30.26,30.20,9,3,14,0.00
2012-2-17,76.8,70.4,65.7,66.7,63.1,59.9,94,78,64,30.24,30.13,13,6,21,0.00
2012-2-18,79.3,70.8,64.7,68.5,63.5,59.3,90,78,58,30.23,30.09,16,7,24,0.00
2012-2-19,74.1,67.2,60.4,68.5,63.5,59.3,100,88,76,30.21,30.06,13,6,20,0.87
2012-2-20,76.3,68.9,62.7,67.9,60.9,55.9,92,76,62,30.16,30.06,15,7,20,0.00
2012-2-21,72.3,66.4,63.2,69.2,62.3,57.0,100,87,72,30.23,30.10,12,5,16,0.78
2012-2-22,76.6,70.8,64.6,69.0,65.5,61.6,95,84,66,30.18,30.04,12,6,17,0.02
2012-2-23,75.9,67.8,61.5,70.4,64.8,60.1,96,90,79,30.12,29.96,10,4,15,0.00
2012-2-24,75.2,67.4,60.2,70.0,64.8,56.9,100,92,78,30.06,29.98,10,4,16,0.19
2012-2-25,73.6,68.4,63.9,71.3,66.9,63.7,100,95,85,30.12,30.01,8,4,14,0.23
2012-2-26,70.7,67.1,65.1,67.8,65.2,62.1,100,94,86,30.14,30.04,8,4,12,0.05
2012-2-27,74.4,68.0,60.8,67.7,64.2,59.1,95,88,73,30.15,30.06,10,4,14,0.00
2012-2-28,76.9,69.3,65.1,69.4,65.7,62.7,100,89,72,30.17,30.07,11,6,19,0.23
2012-2-29,71.4,67.4,64.2,68.6,65.3,63.2,100,93,86,30.17,30.07,9,5,15,0.79
2012-3-1,71.8,66.4,61.5,67.4,64.2,59.8,98,93,81,30.18,30.07,9,4,10,0.02
2012-3-2,74.6,67.7,61.4,69.8,65.4,59.7,100,93,81,30.17,30.05,9,4,17,0.02
2012-3-3,69.6,66.0,63.4,68.1,65.8,63.4,100,99,94,30.14,30.00,7,3,7,2.52
2012-3-4,74.8,68.2,63.8,70.3,66.5,63.5,100,95,84,30.07,29.94,8,3,11,0.01
2012-3-5,73.7,67.5,62.7,69.1,65.3,61.6,98,93,78,30.03,29.91,8,3,10,0.00
2012-3-6,72.6,68.3,63.3,70.8,66.6,60.9,100,94,85,30.11,29.94,5,2,6,0.09
2012-3-7,77.8,70.8,64.5,71.6,67.8,64.2,100,90,75,30.10,30.00,7,3,11,0.00
2012-3-8,76.4,70.4,64.9,71.4,66.9,62.8,95,89,76,30.08,29.95,12,5,20,0.00
2012-3-9,79.0,71.7,66.3,68.6,64.6,59.2,92,79,57,30.12,30.00,13,6,20,0.00
2012-3-10,75.5,69.6,66.0,69.6,64.8,59.3,95,85,75,30.17,30.07,12,6,0,0.00
2012-3-11,78.2,69.5,58.9,68.4,62.1,50.0,92,78,63,30.17,30.06,14,6,0,0.00
2012-3-12,76.7,69.1,60.2,70.2,63.8,51.0,94,84,65,30.14,30.01,14,6,0,0.00
2012-3-13,74.2,67.7,61.7,67.2,64.0,60.0,96,88,76,30.11,30.03,11,4,0,0.00
2012-3-14,73.5,66.8,59.9,66.6,61.6,56.2,92,84,75,30.15,30.04,11,4,0,0.00
2012-3-15,74.5,67.4,58.8,66.9,61.0,55.4,89,80,64,30.21,30.08,12,5,0,0.00
2012-3-16,77.0,69.0,62.1,68.6,62.7,56.3,93,81,60,30.25,30.15,13,6,21,0.00
2012-3-17,76.7,68.4,59.3,68.3,63.3,57.3,94,84,71,30.24,30.14,13,5,21,0.00
2012-3-18,75.0,68.7,61.7,69.4,65.1,58.9,98,88,77,30.18,30.09,12,5,14,0.00
2012-3-19,74.7,68.2,61.2,69.1,63.6,59.7,97,86,71,30.14,30.04,11,4,17,0.09
2012-3-20,74.2,69.8,61.2,69.4,66.5,60.5,98,90,77,30.16,30.05,8,4,15,0.02
2012-3-21,76.8,69.2,60.1,68.5,63.5,58.8,97,83,66,30.16,30.04,14,6,20,0.00
2012-3-22,73.3,68.7,60.7,68.2,62.9,55.9,93,82,71,30.14,30.01,13,5,22,0.01
2012-3-23,75.1,68.8,60.6,66.8,61.7,55.4,87,78,69,30.13,30.04,14,6,22,0.00
2012-3-24,68.3,68.0,67.7,64.6,64.2,63.9,89,88,86,30.13,30.12,5,4,7,0.00
2012-3-25,65.3,64.8,64.5,65.2,64.8,64.5,100,100,99,30.14,30.08,5,4,0,0.17
2012-3-27,73.6,68.2,63.6,67.9,64.1,59.8,95,87,65,30.12,30.02,9,3,12,0.00
2012-3-28,73.4,66.0,57.6,67.8,62.4,55.3,98,89,72,30.12,30.03,10,4,20,0.00
2012-3-29,75.0,66.7,58.3,66.5,61.3,54.7,94,83,61,30.14,30.05,10,4,15,0.00
2012-3-30,81.7,69.9,57.5,66.7,59.8,53.2,86,72,47,30.16,29.99,16,6,24,0.00
2012-3-31,78.8,69.8,60.3,70.2,63.5,53.1,96,81,59,30.21,30.09,11,5,16,0.00
2012-4-1,71.2,68.9,66.6,68.9,67.2,65.9,99,94,86,30.22,30.09,7,3,10,0.00
2012-4-2,75.6,69.9,65.4,69.1,66.6,63.2,99,90,74,30.16,30.05,7,3,13,0.00
2012-4-3,73.2,68.0,62.2,68.1,65.0,58.8,97,90,78,30.13,30.02,9,3,12,0.00
2012-4-4,75.0,68.2,61.4,70.4,65.8,59.0,99,92,78,30.11,30.03,11,4,13,0.05
2012-4-5,74.8,68.1,62.6,68.2,64.5,61.7,98,89,77,30.11,30.02,8,3,14,0.00
2012-4-6,75.5,67.9,59.9,69.0,64.1,58.2,94,88,73,30.17,30.04,13,4,13,0.00
2012-4-7,74.9,69.1,64.0,69.7,64.9,60.4,93,87,75,30.17,30.04,15,5,28,0.00
2012-4-8,75.9,69.9,65.1,69.8,65.4,61.6,91,86,79,30.17,30.06,11,4,17,0.00
2012-4-9,72.7,68.3,63.7,67.9,64.4,61.1,96,88,79,30.18,30.08,11,4,15,0.00
2012-4-10,71.4,66.0,61.1,66.2,62.7,58.1,98,89,74,30.20,30.11,9,4,15,0.03
2012-4-11,74.0,67.6,61.2,67.5,63.9,59.1,95,88,77,30.21,30.12,11,4,15,0.00
2012-4-12,74.1,67.8,59.7,68.6,64.7,58.2,99,90,75,30.23,30.12,9,3,14,0.02
2012-4-13,74.5,68.0,61.6,69.6,66.1,60.1,99,94,82,30.23,30.11,6,3,10,0.08
2012-4-14,75.4,68.7,65.2,70.9,67.3,64.8,100,96,82,30.22,30.13,9,4,14,0.28
2012-4-15,72.6,68.6,62.3,68.8,65.9,62.0,100,92,83,30.22,30.10,10,5,19,0.00
2012-4-16,79.8,69.3,60.5,70.1,63.3,58.1,94,82,59,30.19,30.10,14,5,20,0.00
2012-4-17,80.3,70.4,62.4,69.9,63.3,56.4,90,79,56,30.19,30.05,15,6,22,0.00
2012-4-18,77.4,68.5,61.0,69.2,63.6,57.5,91,84,72,30.17,30.07,17,6,26,0.00
2012-4-19,77.2,68.5,60.1,69.1,63.6,56.8,93,85,63,30.15,30.08,12,4,17,0.00
2012-4-20,75.4,69.0,61.5,68.9,65.4,60.4,98,89,74,30.13,30.01,11,4,15,0.00
2012-4-21,77.7,68.8,62.2,69.0,64.4,59.8,95,86,69,30.07,29.97,12,4,17,0.00
2012-4-22,81.0,70.5,59.1,68.9,62.6,56.2,92,77,61,30.11,29.98,16,6,26,0.00
2012-4-23,74.9,69.2,60.2,69.4,63.7,55.7,91,83,74,30.16,30.03,13,6,17,0.00
2012-4-24,75.8,68.4,60.1,68.4,63.3,57.8,93,84,67,30.20,30.09,14,5,21,0.00
2012-4-25,73.3,67.3,60.9,67.8,63.9,59.0,95,89,75,30.18,30.08,12,4,14,0.00
2012-4-26,74.4,68.4,60.5,68.9,65.1,59.4,97,89,75,30.16,30.08,10,4,14,0.00
2012-4-27,74.9,69.1,64.6,70.0,66.4,63.0,96,91,84,30.18,30.09,10,4,15,0.00
2012-4-28,77.4,70.7,63.3,69.8,64.9,60.3,93,82,66,30.20,30.11,12,5,17,0.00
2012-4-29,74.2,69.3,62.4,69.9,64.9,60.3,94,86,78,30.19,30.10,13,6,23,0.00
2012-4-30,76.3,69.7,63.9,70.3,65.5,60.1,96,87,77,30.17,30.07,13,5,17,0.02
2012-5-1,74.8,68.6,61.5,69.5,64.8,57.4,93,88,78,30.17,30.04,12,5,19,0.00
2012-5-2,78.5,69.0,60.6,69.0,63.0,56.0,91,82,61,30.15,30.03,13,5,18,0.00
2012-5-3,76.4,69.1,60.4,69.4,63.8,56.8,92,84,71,30.12,30.03,15,5,24,0.00
2012-5-4,78.2,70.7,64.1,70.3,65.3,58.7,94,83,62,30.14,30.04,15,6,23,0.00
2012-5-5,76.1,69.0,62.1,70.9,65.6,60.1,96,89,79,30.13,30.07,12,5,19,0.00
2012-5-6,79.2,70.5,61.2,70.2,64.8,58.5,94,83,61,30.14,30.04,15,6,27,0.00
2012-5-7,79.8,73.0,64.5,70.6,67.2,61.8,93,82,65,30.17,30.06,13,6,24,0.00
2012-5-8,75.3,69.5,65.9,70.5,66.2,63.4,97,89,81,30.17,30.11,12,4,20,0.04
2012-5-9,74.7,68.3,64.0,67.8,63.9,61.3,95,86,69,30.14,30.04,11,3,16,0.03
2012-5-10,74.2,68.3,62.1,67.1,63.6,59.4,93,85,69,30.12,30.03,9,3,11,0.01
2012-5-11,74.6,68.2,61.1,66.8,62.9,57.2,90,83,64,30.10,30.02,10,4,15,0.00
2012-5-12,71.2,66.0,64.0,66.0,63.6,61.4,99,92,77,30.12,30.03,6,2,10,0.17
2012-5-13,74.5,67.3,60.8,67.0,64.1,60.2,99,90,73,30.11,30.02,7,3,12,0.01
2012-5-14,74.9,68.3,61.3,67.6,64.5,58.7,97,88,74,30.08,29.99,7,2,12,0.01
2012-5-15,77.0,69.0,61.3,68.7,64.7,59.4,97,87,66,30.10,30.00,7,3,15,0.00
2012-5-16,75.3,69.6,63.4,69.7,65.4,59.0,99,87,76,30.13,30.03,8,3,14,0.02
2012-5-17,76.7,70.1,61.1,71.1,66.5,59.3,96,89,78,30.18,30.08,9,4,17,0.00
2012-5-18,75.3,70.0,64.6,69.8,67.1,62.6,98,91,81,30.15,30.06,10,4,12,0.00
2012-5-19,75.7,69.6,62.7,70.4,66.6,61.0,96,90,77,30.13,30.03,9,3,14,0.00
2012-5-20,78.2,72.1,65.8,71.7,67.4,61.3,95,85,75,30.15,30.05,11,5,19,0.00
2012-5-21,78.9,70.3,61.0,71.7,66.1,58.1,95,87,75,30.18,30.08,11,4,16,0.00
2012-5-22,81.1,73.1,62.8,70.4,65.0,59.5,90,76,57,30.16,30.05,15,6,21,0.00
2012-5-23,76.8,71.6,67.9,70.7,66.1,61.4,91,83,74,30.18,30.07,11,6,19,0.00
2012-5-24,79.9,72.8,65.2,70.8,66.6,61.5,92,81,64,30.17,30.04,12,6,17,0.00
2012-5-25,78.3,72.8,65.8,70.0,65.9,60.5,94,79,64,30.11,30.02,16,7,25,0.00
2012-5-26,79.9,74.0,65.6,71.5,66.9,59.0,89,79,69,30.10,30.00,16,8,25,0.00
2012-5-27,78.3,71.9,66.5,71.7,68.6,66.2,100,90,75,30.14,30.04,14,6,20,0.08
2012-5-28,81.2,71.6,64.0,70.0,65.6,60.7,94,82,60,30.16,30.08,17,6,23,0.00
2012-5-29,81.5,73.0,65.8,69.1,64.1,60.3,92,74,56,30.16,30.06,17,8,25,0.00
2012-5-30,80.6,71.8,62.4,70.0,64.2,58.8,92,77,56,30.15,30.06,15,6,24,0.00
2012-5-31,79.4,71.0,64.2,70.1,65.4,57.8,93,83,65,30.15,30.07,15,6,19,0.00
2012-6-1,79.7,71.8,62.5,70.7,65.7,58.1,91,81,70,30.16,30.06,16,7,25,0.00
2012-6-2,77.4,70.6,62.1,70.2,65.6,59.6,92,84,72,30.17,30.04,14,5,26,0.00
2012-6-3,79.4,71.2,61.6,71.2,65.1,58.8,92,81,71,30.11,30.01,14,6,22,0.00
2012-6-4,77.1,70.6,62.4,71.7,66.1,58.8,94,86,75,30.13,30.03,13,5,20,0.00
2012-6-5,78.8,71.5,65.0,72.1,67.8,61.8,95,88,73,30.13,30.06,10,4,15,0.00
2012-6-6,79.1,71.5,64.6,72.9,68.4,63.4,97,90,80,30.13,30.05,10,4,16,0.00
2012-6-7,79.5,71.9,62.7,71.6,67.4,61.0,99,86,69,30.13,30.06,13,5,18,0.00
2012-6-8,74.9,71.0,65.7,69.9,67.6,62.4,100,89,79,30.11,30.02,12,5,14,0.02
2012-6-9,77.6,70.9,64.2,70.5,66.4,62.0,94,86,71,30.09,30.01,11,4,14,0.00
2012-6-10,77.7,70.0,63.6,71.2,67.0,61.5,97,90,75,30.07,30.01,8,4,14,0.02
2012-6-11,74.5,69.8,64.7,69.7,67.0,63.0,100,91,81,30.10,30.01,6,2,7,0.08
2012-6-12,78.8,69.0,63.2,69.0,65.5,62.2,100,90,69,30.09,30.05,7,3,11,0.00
2012-7-10,75.9,70.4,64.0,70.1,64.0,58.8,90,80,68,30.10,30.03,12,5,0,0.00
2012-7-11,79.3,70.7,63.6,70.2,63.9,58.5,86,79,61,30.08,30.01,11,4,0,0.00
2012-7-12,82.9,72.9,62.5,73.6,66.0,56.3,91,79,62,30.04,29.95,10,4,0,0.00
2012-7-13,82.2,74.2,67.5,73.4,69.5,64.1,95,86,74,30.05,29.95,15,6,0,0.00
2012-7-14,80.5,72.7,65.7,71.7,67.5,62.7,92,84,66,30.08,30.00,11,5,0,0.00
2012-7-15,81.9,72.8,63.9,72.7,67.2,61.2,95,83,65,30.09,29.99,13,5,0,0.00
2012-7-16,79.8,73.5,66.2,73.6,68.6,61.6,97,85,71,30.08,29.96,10,4,15,0.00
2012-7-17,82.3,74.1,67.8,74.9,71.1,65.8,98,91,77,30.05,29.97,12,4,16,0.00
2012-7-18,78.3,73.5,67.8,73.6,70.9,66.5,98,92,83,30.08,30.01,12,6,23,0.00
2012-7-19,79.8,71.2,63.6,71.6,67.6,62.0,97,89,75,30.09,30.02,11,4,15,0.00
2012-7-20,78.6,70.5,61.9,69.6,66.1,60.0,99,87,69,30.11,30.03,9,4,15,0.03
2012-7-21,77.9,70.3,63.4,71.5,67.7,62.6,100,92,79,30.09,30.02,8,4,12,0.11
2012-7-22,80.6,71.0,63.8,72.0,67.4,63.5,100,89,71,30.09,30.04,9,3,12,0.00
2012-7-23,76.3,71.5,65.2,71.1,67.8,63.2,98,88,76,30.12,30.05,9,3,13,0.00
2012-7-24,80.6,71.1,64.7,72.1,67.4,61.8,96,88,71,30.09,30.00,13,4,18,0.00
2012-7-25,77.0,71.1,63.0,69.5,64.7,55.7,94,81,65,30.09,29.96,13,5,19,0.00
2012-7-26,78.5,71.2,62.7,69.9,63.9,52.0,88,78,64,30.05,29.98,11,5,16,0.00
2012-7-27,78.7,72.2,65.6,71.6,67.5,63.0,95,85,73,30.09,30.00,12,4,18,0.00
2012-7-28,78.6,70.7,63.5,72.0,67.4,61.1,98,90,74,30.09,30.02,8,3,14,0.00
2012-7-29,68.4,67.2,65.7,66.8,65.6,64.5,96,95,94,30.08,30.05,3,2,4,0.00
2012-7-30,75.7,73.6,71.6,72.9,71.8,70.5,99,94,89,30.11,30.03,7,4,17,0.00
2012-7-31,79.8,74.2,70.5,74.5,71.0,68.8,100,90,76,30.13,30.03,13,5,21,0.00
2012-8-1,77.5,73.5,69.5,72.5,69.8,67.4,95,88,77,30.12,30.05,10,4,14,0.00
2012-8-2,78.4,72.1,67.5,72.3,68.3,64.6,96,88,78,30.13,30.04,10,4,17,0.00
2012-8-3,77.6,71.7,65.5,71.8,67.9,63.2,100,88,78,30.13,30.06,8,4,13,0.03
2012-8-4,82.0,72.9,64.0,73.0,68.7,63.1,99,88,68,30.11,30.03,10,5,18,0.00
2012-8-5,77.6,71.6,65.3,72.0,68.7,63.4,100,91,76,30.12,30.03,8,3,11,0.33
2012-8-6,73.9,69.8,64.8,70.8,68.1,63.9,100,94,85,30.12,30.04,7,3,11,0.02
2012-8-7,79.5,71.3,62.4,71.6,67.0,61.2,97,87,66,30.12,30.01,12,5,20,0.00
2012-8-8,80.4,72.9,64.8,73.8,68.4,63.0,95,86,70,30.14,30.03,14,5,19,0.00
2012-8-9,79.4,72.5,63.8,74.5,69.3,61.7,96,90,79,30.15,30.06,11,4,14,0.00
2012-8-10,79.0,73.0,66.0,71.5,68.7,64.8,96,87,75,30.12,29.97,10,4,16,0.00
2012-8-11,79.9,72.1,64.7,72.9,68.5,63.2,98,89,72,30.06,29.97,9,4,14,0.00
2012-8-12,80.2,73.7,67.2,73.6,69.5,65.1,97,87,72,30.08,29.98,11,4,16,0.00
2012-8-13,78.9,73.0,66.0,74.3,70.1,63.2,99,91,77,30.08,29.98,8,4,14,0.00
2012-8-14,86.7,74.7,65.4,73.6,68.7,63.9,97,83,57,30.06,29.92,16,6,25,0.00
2012-8-15,80.3,73.0,66.6,72.8,68.5,64.1,96,86,70,30.07,29.96,13,5,20,0.00
2012-8-16,81.3,72.7,66.4,72.1,67.7,63.1,92,85,67,30.09,29.98,11,4,16,0.00
2012-8-17,79.2,71.8,64.8,71.4,67.4,62.4,99,86,68,30.08,30.00,11,4,16,0.00
2012-8-18,80.4,72.4,64.5,73.0,66.8,59.6,93,83,63,30.06,29.94,8,4,12,0.00
2012-8-19,83.6,73.1,64.5,73.2,68.7,61.1,100,87,60,30.06,29.97,10,4,17,0.04
2012-8-20,80.0,73.5,68.2,75.1,71.6,68.2,100,94,75,30.10,30.02,10,3,16,0.02
2012-8-21,79.3,73.0,66.5,73.4,69.6,65.2,97,90,79,30.12,30.06,8,3,13,0.03
2012-8-22,80.8,75.4,68.6,73.0,70.2,66.8,94,84,72,30.13,30.06,9,4,13,0.01
2012-8-23,79.8,72.3,65.9,73.1,68.4,63.5,96,88,69,30.14,30.05,10,4,13,0.00
2012-8-24,80.3,69.5,62.6,72.7,64.4,60.0,94,84,73,30.14,30.07,9,4,14,0.00
2012-8-25,84.9,75.4,65.7,72.2,64.5,57.3,83,70,53,30.10,29.97,15,7,0,0.00
2012-8-26,80.2,73.7,67.2,70.7,65.1,59.4,89,75,59,30.07,29.99,10,5,0,0.00
2012-8-27,77.8,71.2,66.8,71.7,66.6,61.8,97,86,76,30.08,29.98,9,3,16,0.02
2012-8-28,80.0,72.0,65.1,72.0,67.8,61.9,97,87,73,30.09,30.00,9,4,13,0.00
2012-8-29,74.6,70.1,66.8,70.8,68.9,66.5,100,96,85,30.10,30.02,6,3,10,0.10
2012-8-30,75.7,71.1,64.3,71.6,67.6,63.4,100,89,79,30.12,30.02,8,4,13,0.01
2012-8-31,76.3,72.4,68.3,71.8,68.2,63.4,94,87,76,30.13,30.03,10,4,18,0.00
2012-9-1,78.8,73.1,66.2,71.6,67.7,62.5,99,84,71,30.12,30.02,12,6,18,0.00
2012-9-2,80.1,73.9,68.1,72.2,66.3,60.5,89,77,65,30.11,30.00,14,7,20,0.00
2012-9-3,79.8,72.9,66.8,70.8,66.7,61.8,91,81,68,30.10,30.00,14,6,17,0.00
2012-9-4,80.3,72.2,65.0,71.4,65.9,57.7,94,81,66,30.14,30.05,13,4,20,0.00
2012-9-5,76.5,71.1,63.8,70.9,66.1,57.5,91,84,74,30.14,30.03,10,4,18,0.00
2012-9-6,81.3,73.0,63.7,72.4,67.1,59.8,92,82,59,30.08,29.98,12,4,20,0.00
2012-9-7,79.6,70.5,64.7,71.6,66.8,60.7,99,88,75,30.08,29.98,10,4,13,0.02
2012-9-8,79.8,72.0,63.6,72.7,68.7,62.6,100,90,76,30.13,30.02,9,4,13,0.13
2012-9-9,78.9,70.4,64.7,72.8,68.6,63.9,100,94,76,30.16,30.06,11,4,14,0.14
2012-9-10,80.2,72.0,61.8,71.4,66.7,60.1,95,84,68,30.13,30.02,12,5,20,0.00
2012-9-11,79.2,73.6,67.3,70.3,66.7,63.2,97,80,66,30.09,29.96,14,6,23,0.00
2012-9-12,78.7,73.2,67.0,70.3,66.0,61.6,90,78,64,30.09,29.97,12,6,20,0.00
2012-9-13,80.0,73.0,68.6,71.0,66.3,62.0,88,80,69,30.11,29.98,13,6,21,0.00
2012-9-14,77.4,71.7,65.0,68.9,65.1,61.0,93,80,68,30.11,30.01,11,4,17,0.00
2012-9-15,78.9,71.5,66.4,70.4,67.0,62.7,99,86,71,30.10,30.00,9,4,13,0.10
2012-9-16,78.5,70.2,64.5,70.9,67.5,62.5,100,92,74,30.10,30.02,9,3,14,0.33
2012-9-17,78.9,70.8,63.8,70.0,66.1,61.6,99,86,71,30.08,29.98,10,4,14,0.00
2012-9-18,79.4,71.2,63.2,71.1,66.0,59.6,99,84,68,30.04,29.95,8,4,14,0.02
2012-9-19,77.7,70.3,62.4,73.0,68.6,61.8,100,95,80,30.09,29.98,6,3,12,0.15
2012-9-20,77.8,71.8,65.3,73.2,69.6,65.3,100,93,82,30.12,30.02,10,3,13,0.00
2012-9-21,77.7,70.3,63.9,73.0,67.3,61.8,97,91,79,30.09,29.99,11,4,13,0.00
2012-9-22,82.0,73.7,64.7,73.7,67.9,62.6,96,83,66,30.06,29.96,11,4,15,0.00
2012-9-23,81.6,73.9,66.7,75.8,70.5,63.0,99,89,80,30.07,29.98,10,4,16,0.00
2012-9-24,82.6,74.0,67.0,74.3,69.6,65.2,94,86,59,30.07,29.97,14,5,22,0.00
2012-9-25,77.1,71.4,65.7,71.7,67.9,63.7,95,89,77,30.10,30.00,10,4,14,0.00
2012-9-26,80.0,72.2,65.2,74.1,68.6,63.1,97,89,74,30.08,29.97,13,4,17,0.00
2012-9-27,77.0,71.8,65.9,72.9,68.6,63.1,97,90,77,30.08,29.98,9,3,10,0.00
2012-9-28,81.1,72.5,64.6,73.2,66.7,60.5,93,82,72,30.06,29.93,15,5,23,0.00
2012-9-29,77.5,72.3,64.8,71.5,67.0,60.2,95,84,72,30.07,29.98,10,4,16,0.00
2012-9-30,77.6,71.9,68.2,71.3,68.9,66.2,98,90,75,30.07,29.96,7,3,11,0.02
2012-10-1,78.8,70.2,63.0,73.2,68.4,61.8,100,94,82,30.05,29.94,9,4,13,1.22
2012-10-2,77.1,71.5,68.1,73.6,70.5,68.1,100,97,88,30.05,29.94,6,3,11,0.09
2012-10-3,78.9,72.6,68.6,74.2,71.3,68.6,100,96,79,30.08,29.98,9,3,14,0.02
2012-10-4,76.1,72.0,69.3,72.7,70.8,69.3,100,96,88,30.08,29.99,7,3,13,0.06
2012-10-5,76.1,70.8,66.4,71.5,69.3,66.0,100,95,79,30.05,29.95,6,3,10,0.02
2012-10-6,77.5,70.8,64.6,72.0,69.0,63.8,100,94,79,29.99,29.90,5,2,6,0.01
2012-10-7,77.9,72.1,65.1,73.1,69.5,64.1,98,91,76,30.00,29.90,5,2,10,0.00
2012-10-8,81.7,74.0,65.4,75.3,70.7,63.3,99,90,76,30.05,29.94,7,3,11,0.00
2012-10-9,81.3,73.5,66.7,76.7,71.6,64.5,100,94,78,30.14,30.00,8,3,14,0.04
2012-10-10,79.5,72.6,64.4,74.7,71.5,64.4,100,96,78,30.16,30.03,7,3,11,0.06
2012-10-11,77.5,71.4,64.7,74.2,69.6,63.2,100,94,88,30.13,30.00,11,4,20,0.00
2012-10-12,80.5,71.7,61.7,73.1,67.0,59.4,95,86,68,30.14,30.05,10,4,15,0.00
2012-10-13,81.5,72.4,63.5,75.0,67.9,60.1,96,86,70,30.17,30.08,10,4,14,0.00
2012-10-14,82.5,74.0,64.9,74.4,67.5,55.8,97,81,60,30.15,30.05,10,4,15,0.00
2012-10-15,79.1,72.2,64.7,74.1,69.4,62.3,99,91,80,30.11,30.00,11,4,18,0.00
2012-10-16,80.0,72.4,64.5,71.7,68.2,63.4,98,87,66,30.07,29.98,10,4,14,0.00
2012-10-17,79.8,72.1,66.2,72.7,68.9,64.4,97,90,74,30.04,29.95,11,4,18,0.00
2012-10-18,78.8,70.7,62.2,72.1,67.1,60.0,97,89,74,30.07,29.96,11,4,19,0.00
2012-10-19,78.5,71.8,65.3,70.8,66.9,60.8,97,85,68,30.06,29.96,13,5,25,0.00
2012-10-20,81.6,72.8,64.3,72.9,67.7,60.7,100,85,62,30.03,29.92,12,5,15,0.01
2012-10-21,79.9,70.5,60.0,72.4,66.2,58.1,99,87,65,30.04,29.94,12,5,18,0.01
2012-10-22,79.2,73.2,65.3,70.9,66.3,59.3,90,79,63,30.05,29.94,13,5,21,0.00
2012-10-23,75.5,71.9,69.5,71.5,69.7,67.0,100,93,85,30.05,29.94,7,3,9,0.02
2012-10-24,76.0,71.1,67.7,73.7,70.6,67.7,100,98,91,30.00,29.88,7,3,11,0.03
2012-10-25,76.8,70.6,64.5,72.5,68.8,63.6,100,94,78,30.06,29.95,7,3,12,0.02
2012-10-26,80.9,73.7,64.4,73.6,69.7,62.9,100,88,70,30.12,30.01,7,3,11,0.03
2012-10-27,76.8,71.9,67.3,73.0,71.1,66.1,100,97,85,30.11,29.98,5,2,10,0.06
2012-10-28,77.7,70.6,63.6,72.0,68.0,62.1,99,92,74,30.07,29.96,9,4,12,0.00
2012-10-29,82.1,72.0,63.8,73.4,67.1,59.4,95,85,68,30.09,29.96,11,5,22,0.00
2012-10-30,79.0,71.3,63.5,71.6,67.3,61.4,98,87,69,30.12,30.02,9,4,14,0.00
2012-10-31,78.1,70.4,63.5,70.1,66.2,60.3,96,87,67,30.11,30.02,9,4,22,0.00
2012-11-1,77.7,69.8,62.4,69.6,65.0,59.1,95,85,68,30.07,29.98,7,3,12,0.00
2012-11-2,77.7,69.7,61.1,69.5,64.6,59.1,95,84,67,30.05,29.93,6,3,12,0.00
2012-11-3,79.6,72.0,65.0,71.0,66.2,60.2,93,82,67,30.07,29.95,7,3,10,0.00
2012-11-4,80.8,73.3,67.3,72.3,68.3,64.7,99,85,66,30.04,29.94,7,3,11,0.00
2012-11-5,82.0,71.6,63.3,75.6,68.6,59.8,100,91,67,30.01,29.91,10,4,16,0.02
2012-11-6,79.3,72.6,64.3,71.7,68.1,60.7,100,86,72,30.00,29.89,13,4,22,0.00
2012-11-7,79.6,71.5,63.5,72.3,65.4,56.2,92,81,63,30.09,29.95,11,4,15,0.00
2012-11-8,78.5,71.4,64.9,72.0,66.2,59.6,91,84,75,30.11,30.02,11,4,17,0.00
2012-11-9,81.1,72.0,63.7,70.6,64.1,59.3,87,77,66,30.10,29.95,15,6,25,0.00
2012-11-10,80.5,71.4,62.8,70.2,62.2,55.1,86,73,57,30.08,29.96,14,6,24,0.00
2012-11-11,79.4,72.5,64.5,70.5,63.2,57.9,86,73,58,30.10,29.98,15,6,20,0.00
2012-11-12,79.5,71.7,61.5,70.3,63.1,54.6,86,75,52,30.12,30.00,12,5,20,0.00
2012-11-13,80.5,73.9,66.0,71.3,66.1,60.2,84,77,57,30.11,29.99,15,7,22,0.00
2012-11-14,82.0,74.0,67.5,71.1,63.9,57.4,82,71,60,30.13,30.01,16,7,24,0.00
2012-11-15,78.4,71.5,66.1,69.4,65.5,60.9,94,82,67,30.14,30.04,12,4,19,0.00
2012-11-16,76.6,70.1,64.0,69.7,64.6,60.4,90,83,71,30.13,30.03,13,4,20,0.00
2012-11-17,80.6,71.0,64.8,70.4,64.7,60.5,89,81,61,30.15,30.03,14,5,23,0.00
2012-11-18,76.6,70.8,65.5,69.4,65.2,61.9,91,83,68,30.18,30.07,10,4,14,0.00
2012-11-19,74.9,69.5,65.9,69.7,65.1,62.1,95,86,79,30.16,30.08,7,3,10,0.00
2012-11-20,75.6,71.0,66.0,71.5,68.5,64.6,96,92,85,30.11,30.00,9,3,15,0.01
2012-11-21,75.4,69.9,67.4,71.5,69.1,67.1,100,97,87,30.06,29.95,6,2,9,0.24
2012-11-22,76.1,70.4,67.3,72.0,69.6,67.3,100,97,86,30.06,29.92,4,2,6,0.22
2012-11-23,76.5,69.3,64.9,72.7,68.9,64.9,100,99,82,30.05,29.95,7,2,8,0.74
2012-11-24,78.8,70.4,61.4,73.9,67.8,61.2,100,92,71,30.04,29.92,7,3,10,0.00
2012-11-25,77.6,70.6,62.0,72.8,67.3,60.7,98,90,76,30.03,29.91,8,2,10,0.00
2012-11-26,77.6,71.3,65.4,70.1,67.5,63.3,96,88,73,30.08,29.93,8,3,12,0.00
2012-11-27,76.5,68.3,62.4,70.3,65.3,60.4,98,90,79,30.10,29.99,12,3,19,0.00
2012-11-28,74.8,66.6,59.4,67.5,63.0,57.7,99,89,63,30.13,30.03,9,3,15,0.02
2012-11-29,75.2,68.0,60.8,68.2,64.6,59.1,96,89,77,30.14,30.03,5,2,11,0.00
2012-11-30,74.6,69.1,63.2,69.9,66.4,60.8,99,91,80,30.12,30.02,5,2,6,0.00
2012-12-1,79.1,70.5,61.9,72.0,67.2,61.3,99,90,73,30.12,30.00,7,3,11,0.00
2012-12-2,79.1,72.0,65.6,74.8,70.3,63.9,100,94,84,30.10,29.95,5,2,8,0.00
2012-12-3,76.3,72.8,69.0,75.0,72.2,69.0,100,98,92,30.07,29.98,4,2,5,0.28
2012-12-4,79.2,72.1,65.7,74.8,70.7,65.7,100,96,82,30.12,30.02,7,3,11,0.00
2012-12-5,79.4,71.2,66.0,73.5,69.0,64.9,98,93,81,30.16,30.05,9,3,12,0.00
2012-12-6,78.0,70.7,64.3,70.1,66.5,61.0,97,87,73,30.09,29.97,9,4,13,0.00
2012-12-7,76.7,69.2,62.7,71.4,66.8,61.7,99,92,74,30.04,29.95,6,3,11,0.00
2012-12-8,78.3,70.6,62.2,72.7,67.5,61.3,99,90,75,30.03,29.93,9,4,12,0.00
2012-12-9,75.9,71.5,66.8,71.3,67.3,62.1,95,87,77,30.06,29.94,9,4,14,0.00
2012-12-10,76.5,70.3,64.6,71.0,67.0,63.0,97,90,80,30.10,29.98,13,5,18,0.00
2012-12-11,77.9,70.3,62.0,69.3,63.3,58.1,93,79,63,30.12,30.00,13,6,16,0.00
2012-12-12,79.1,70.6,64.0,69.4,64.1,59.6,90,80,66,30.14,30.02,16,7,28,0.00
2012-12-13,80.6,72.4,65.8,70.2,63.7,53.8,91,74,55,30.15,30.05,15,6,20,0.00
2012-12-14,80.4,73.2,63.2,69.8,64.8,54.4,88,75,53,30.15,30.05,15,8,23,0.00
2012-12-15,77.0,70.8,62.3,68.3,63.8,56.7,95,79,60,30.18,30.07,15,6,21,0.00
2012-12-16,77.5,68.5,64.7,67.6,64.8,61.3,98,88,63,30.15,30.09,13,4,17,0.00
2013-1-1,74.1,67.6,60.7,70.9,66.3,60.4,100,96,88,30.16,30.01,6,3,0,0.01